EW7422 Weather Reports


time (UTC)temp
F
wind
direction
speed
knots
gust
knots
rain 1hr
in
rain 24hr
in
rain mn
in
humidity
%
barometer
mb
20260906084129 69 178 0.0 0.9 0.00 0.00 0.00 100 1016.3
20260906083619 69 178 0.0 0.9 0.00 0.00 0.00 100 1016.3
20260906083120 69 178 0.0 0.0 0.00 0.00 0.00 100 1016.2
20260906082617 69 178 0.0 0.0 0.00 0.00 0.00 100 1016.3
20260906082101 69 178 0.0 0.0 0.00 0.00 0.00 100 1016.4
20260906081601 69 178 0.0 0.0 0.00 0.00 0.00 100 1016.4
20260906081101 69 178 0.0 0.0 0.00 0.00 0.00 100 1016.3
20260906080601 69 178 0.0 0.9 0.00 0.00 0.00 100 1016.3
20260906075600 69 178 0.0 1.7 0.00 0.00 0.00 100 1016.2
20260906075101 69 175 0.0 0.9 0.00 0.00 0.00 100 1016.2
20260906074602 69 175 0.0 0.9 0.00 0.00 0.00 100 1016.2
20260906074101 69 175 0.0 1.7 0.00 0.00 0.00 100 1016.1
20260906073601 69 175 0.0 1.7 0.00 0.00 0.00 100 1016.0
20260906073101 69 175 0.0 1.7 0.00 0.00 0.00 100 1016.0
20260906072831 69 178 0.0 0.0 0.00 0.00 0.00 100 1016.0
20260906072101 69 178 0.0 0.0 0.00 0.00 0.00 100 1016.1
20260906071602 69 178 0.0 0.9 0.00 0.00 0.00 100 1016.1
20260906071100 69 179 0.0 0.9 0.00 0.00 0.00 100 1016.2
20260906070602 69 179 0.0 0.9 0.00 0.00 0.00 100 1016.3
20260906070101 69 179 0.0 0.9 0.00 0.00 0.00 100 1016.3
20260906065601 69 179 0.0 0.9 0.00 0.00 0.00 100 1016.2
20260906065102 69 178 0.0 0.0 0.00 0.00 0.00 100 1016.2
20260906064602 69 178 0.0 0.0 0.00 0.00 0.00 100 1016.2
20260906064101 69 178 0.0 0.9 0.00 0.00 0.00 100 1016.2
20260906063602 69 178 0.0 1.7 0.00 0.00 0.00 100 1016.3
20260906063101 69 178 0.0 1.7 0.00 0.00 0.00 100 1016.3
20260906062602 69 178 0.0 1.7 0.00 0.00 0.00 100 1016.3
20260906062102 69 179 0.0 1.7 0.00 0.00 0.00 100 1016.3
20260906061602 69 179 0.9 1.7 0.00 0.00 0.00 100 1016.3
20260906061101 69 179 0.0 1.7 0.00 0.00 0.00 100 1016.3
20260906060604 69 179 0.0 0.9 0.00 0.00 0.00 100 1016.4
20260906060600 69 179 0.0 0.9 0.00 0.00 0.00 100 1016.3
20260906055827 69 179 0.0 0.9 0.00 0.00 0.00 100 1016.5
20260906055055 69 179 0.0 0.9 0.00 0.00 0.00 100 1016.7
20260906054555 69 179 0.0 0.9 0.00 0.00 0.00 100 1016.8
20260906054049 69 179 0.0 1.7 0.00 0.00 0.00 100 1017.0
20260906053545 69 179 0.0 1.7 0.00 0.00 0.00 100 1017.0
20260906053029 69 179 0.0 0.9 0.00 0.00 0.00 100 1017.1
20260906052531 69 179 0.0 0.9 0.00 0.00 0.00 100 1017.0
20260906052029 69 179 0.0 0.9 0.00 0.00 0.00 100 1017.1
20260906051530 69 179 0.0 0.9 0.00 0.00 0.00 100 1017.2
20260906051300 69 178 0.0 0.0 0.00 0.00 0.00 100 1017.2
20260906050530 69 178 0.0 0.0 0.00 0.00 0.00 100 1017.3
20260906050030 69 178 0.0 0.0 0.00 0.00 0.00 100 1017.4
20260906045530 69 178 0.0 0.0 0.00 0.00 0.00 100 1017.4
20260906045029 69 178 0.0 1.7 0.00 0.00 0.00 100 1017.3
20260906044529 69 178 0.9 1.7 0.00 0.00 0.00 100 1017.2
20260906044028 69 178 0.9 2.6 0.00 0.00 0.00 100 1017.1
20260906043529 69 195 0.9 2.6 0.00 0.00 0.00 100 1017.2
20260906043518 69 230 0.0 1.7 0.00 0.00 0.00 100 1017.2
20260906042029 70 240 0.0 0.0 0.00 0.00 0.00 100 1017.1
20260906041529 70 240 0.0 0.0 0.00 0.00 0.00 100 1017.1
20260906041028 70 240 0.0 0.0 0.00 0.00 0.00 100 1017.1
20260906040529 70 240 0.0 0.0 0.00 0.00 0.00 100 1017.2
20260906040029 70 240 0.0 0.0 0.00 0.00 0.00 100 1017.4
20260906035529 70 240 0.0 0.0 0.00 0.00 0.00 100 1017.4
20260906035028 70 240 0.0 0.0 0.00 0.00 0.00 100 1017.3
20260906034529 70 240 0.0 0.0 0.00 0.00 0.00 100 1017.3
20260906034029 70 240 0.0 0.9 0.00 0.00 0.00 99 1017.4
20260906033534 70 240 0.0 0.9 0.00 0.00 0.00 100 1017.3
20260906033530 70 240 0.0 0.9 0.00 0.00 0.00 100 1017.3
20260906032529 70 240 0.0 0.9 0.00 0.00 0.00 100 1017.2
20260906032028 70 240 0.0 0.0 0.00 0.00 0.00 99 1017.3
20260906031529 70 240 0.0 2.6 0.00 0.00 0.00 99 1017.4
20260906031029 70 240 0.0 2.6 0.00 0.00 0.00 99 1017.3
20260906030529 70 240 0.0 2.6 0.00 0.00 0.00 99 1017.2
20260906030029 70 97 0.0 0.0 0.00 0.00 0.00 99 1017.2
20260906025759 70 97 0.0 0.0 0.00 0.00 0.00 99 1017.2
20260906025029 70 97 0.0 0.0 0.00 0.00 0.00 99 1017.2
20260906024800 70 97 0.0 0.0 0.00 0.00 0.00 99 1017.4
20260906024259 70 97 0.0 0.0 0.00 0.00 0.00 99 1017.4
20260906023529 70 97 0.0 0.0 0.00 0.00 0.00 99 1017.4
20260906023029 70 97 0.0 0.9 0.00 0.00 0.00 99 1017.3
20260906022528 71 97 0.0 1.7 0.00 0.00 0.00 99 1017.1
20260906022029 70 98 0.9 1.7 0.00 0.00 0.00 99 1017.0
20260906021529 71 97 0.0 1.7 0.00 0.00 0.00 99 1017.0
20260906021308 71 97 0.0 0.9 0.00 0.00 0.00 99 1017.0
20260906020529 71 97 0.0 0.9 0.00 0.00 0.00 99 1016.9
20260906020029 71 97 0.0 1.7 0.00 0.00 0.00 99 1017.0
20260906015529 71 97 0.0 1.7 0.00 0.00 0.00 99 1016.7
20260906015027 71 97 0.0 0.9 0.00 0.00 0.00 98 1016.7
20260906014519 71 97 0.0 0.0 0.00 0.00 0.00 98 1016.7
20260906014232 71 97 0.0 0.9 0.00 0.00 0.00 98 1016.7
20260906013504 71 97 0.0 0.9 0.00 0.00 0.00 98 1016.7
20260906013002 71 97 0.0 0.9 0.00 0.00 0.00 98 1016.7
20260906012504 71 97 0.0 0.9 0.00 0.00 0.00 98 1016.8
20260906012000 71 97 0.0 0.9 0.00 0.00 0.00 98 1016.7
20260906011504 71 97 0.0 0.9 0.00 0.00 0.00 98 1016.8
20260906011001 71 97 0.9 1.7 0.00 0.00 0.00 98 1016.7
20260906010504 71 97 0.0 1.7 0.00 0.00 0.00 98 1016.4
20260906010001 71 97 0.0 0.0 0.00 0.00 0.00 97 1016.3
20260906005504 71 97 0.0 0.0 0.00 0.00 0.00 97 1016.3
20260906005001 71 97 0.0 0.9 0.00 0.00 0.00 97 1016.3
20260906004503 71 97 0.0 0.9 0.00 0.00 0.00 96 1016.3
20260906004000 72 97 0.0 0.9 0.00 0.00 0.00 96 1016.3
20260906003736 72 97 0.0 0.9 0.00 0.00 0.00 95 1016.4
20260906003002 72 97 0.0 0.9 0.00 0.00 0.00 95 1016.3
20260906002503 72 97 0.0 0.0 0.00 0.00 0.00 95 1016.2
20260906002002 73 97 0.0 0.0 0.00 0.00 0.00 95 1016.1
20260906001504 73 97 0.0 0.9 0.00 0.00 0.00 95 1016.1
20260906001001 73 97 0.0 1.7 0.00 0.00 0.00 94 1016.3
20260906000503 73 97 0.9 1.7 0.00 0.00 0.00 93 1016.3
20260906000001 74 97 0.0 1.7 0.00 0.00 0.00 92 1016.1
20260905235504 74 97 0.0 0.9 0.00 0.00 0.00 92 1016.2
20260905235232 74 97 0.9 3.5 0.00 0.00 0.00 92 1016.1
20260905234503 74 97 1.7 3.5 0.00 0.00 0.00 91 1016.0
20260905234002 75 103 1.7 5.2 0.00 0.00 0.00 90 1016.2
20260905233504 75 101 1.7 5.2 0.00 0.00 0.00 89 1016.1
20260905233001 75 90 1.7 5.2 0.00 0.00 0.00 89 1016.1
20260905232508 76 138 1.7 4.3 0.00 0.00 0.00 89 1016.0
20260905232504 76 102 1.7 5.2 0.00 0.00 0.00 88 1016.0
20260905231504 76 161 1.7 4.3 0.00 0.00 0.00 89 1015.8
20260905231232 77 145 0.9 3.5 0.00 0.00 0.00 88 1015.7
20260905230504 77 157 0.9 2.6 0.00 0.00 0.00 89 1015.7
20260905230001 76 155 0.9 2.6 0.00 0.00 0.00 90 1015.7
20260905225504 76 157 0.9 2.6 0.00 0.00 0.00 89 1015.5
20260905225231 76 198 0.9 1.7 0.00 0.00 0.00 89 1015.8
20260905224508 76 157 0.0 1.7 0.00 0.00 0.00 89 1015.6
20260905224503 76 198 0.9 1.7 0.00 0.00 0.00 89 1015.7
20260905223504 76 157 0.9 1.7 0.00 0.00 0.00 89 1015.6
20260905223232 76 157 0.9 1.7 0.00 0.00 0.00 89 1015.6
20260905222501 76 96 0.9 2.6 0.00 0.00 0.00 89 1015.6
20260905222002 77 88 0.9 2.6 0.00 0.00 0.00 88 1015.7
20260905221501 77 145 0.9 1.7 0.00 0.00 0.00 87 1015.8
20260905221231 78 141 0.9 4.3 0.00 0.00 0.00 87 1015.8
20260905220501 78 140 1.7 4.3 0.00 0.00 0.00 86 1015.8
20260905220000 78 107 0.9 1.7 0.00 0.00 0.00 84 1015.8
20260905215500 78 90 0.9 1.7 0.00 0.00 0.00 84 1015.7
20260905215239 78 90 0.9 2.6 0.00 0.00 0.00 83 1015.7
20260905214501 78 89 1.7 3.5 0.00 0.00 0.00 84 1015.9
20260905213501 78 118 1.7 3.5 0.00 0.00 0.00 83 1015.8
20260905213004 78 120 0.9 2.6 0.00 0.00 0.00 84 1015.9
20260905212500 78 130 0.0 1.7 0.00 0.00 0.00 85 1016.0
20260905212004 78 130 0.9 2.6 0.00 0.00 0.00 86 1016.2
20260905211500 77 127 1.7 5.2 0.00 0.00 0.00 85 1016.3
20260905211003 77 106 1.7 5.2 0.00 0.00 0.00 84 1016.3
20260905210501 77 105 0.9 3.5 0.00 0.00 0.00 86 1016.2
20260905210004 76 119 0.9 1.7 0.00 0.00 0.00 87 1016.3
20260905205734 76 116 0.9 5.2 0.00 0.00 0.00 86 1016.4
20260905205239 76 116 0.9 5.2 0.00 0.00 0.00 85 1016.4
20260905204502 76 103 0.0 2.6 0.00 0.00 0.00 85 1016.5
20260905204012 76 100 0.0 1.7 0.00 0.00 0.00 87 1016.5
20260905203501 76 100 0.9 1.7 0.00 0.00 0.00 89 1016.5
20260905203004 77 100 0.9 1.7 0.00 0.01 0.00 87 1016.5
20260905202507 77 100 1.7 6.1 0.00 0.04 0.00 83 1016.7
20260905202500 77 100 0.9 6.1 0.00 0.02 0.00 85 1016.5
20260905201456 78 263 2.6 6.1 0.00 0.10 0.00 82 1016.8
20260905200956 78 162 1.7 4.3 0.00 0.19 0.00 82 1016.6
20260905200456 78 250 0.9 3.5 0.00 0.34 0.00 83 1016.5
20260905195952 78 250 0.9 3.5 0.00 0.56 0.00 82 1016.4
20260905195450 79 255 1.7 7.0 0.00 0.72 0.00 82 1016.4
20260905194947 79 257 2.6 7.8 0.00 0.80 0.00 79 1016.3
20260905194440 80 215 2.6 7.8 0.00 0.80 0.00 77 1016.4
20260905194211 81 88 2.6 6.1 0.00 0.80 0.00 77 1016.4
20260905193707 82 151 1.7 7.8 0.00 0.80 0.00 75 1016.5
20260905192935 83 93 3.5 7.8 0.00 0.80 0.00 74 1016.3
20260905192704 83 94 3.5 7.0 0.00 0.80 0.00 73 1016.1
20260905191934 84 78 2.6 6.1 0.00 0.80 0.00 73 1016.1
20260905191432 86 107 3.5 8.7 0.00 0.80 0.00 72 1016.2
20260905190940 86 172 3.5 7.8 0.00 0.80 0.00 68 1016.3
20260905190932 86 138 4.3 8.7 0.00 0.80 0.00 66 1016.2
20260905190659 85 137 4.3 8.7 0.00 0.80 0.00 67 1016.3
20260905185429 85 84 4.3 8.7 0.00 0.80 0.00 67 1016.2
20260905184929 84 122 4.3 7.8 0.00 0.80 0.00 69 1016.2
20260905184429 83 105 2.6 7.0 0.00 0.80 0.00 70 1016.2
20260905183928 81 142 1.7 7.0 0.00 0.80 0.00 71 1016.2
20260905183701 81 80 0.9 2.6 0.00 0.80 0.00 75 1016.3
20260905182928 82 190 0.9 3.5 0.00 0.80 0.00 75 1016.2
20260905182430 83 164 0.9 3.5 0.00 0.80 0.00 72 1016.1
20260905181929 84 21 0.9 2.6 0.00 0.80 0.00 71 1015.9
20260905181429 87 21 0.9 3.5 0.00 0.80 0.00 70 1016.0
20260905180929 89 42 0.9 3.5 0.00 0.80 0.00 71 1016.1
20260905180429 90 34 1.7 2.6 0.00 0.80 0.00 65 1016.2
20260905175933 89 259 1.7 6.1 0.00 0.80 0.00 64 1016.7
20260905175929 89 189 1.7 6.1 0.00 0.80 0.00 63 1016.5
20260905174929 89 287 0.9 6.1 0.00 0.80 0.00 66 1016.7
20260905174430 88 213 0.9 2.6 0.00 0.80 0.00 70 1016.8
20260905173930 88 330 0.9 3.5 0.00 0.80 0.00 73 1017.0
20260905173429 88 149 0.9 3.5 0.00 0.80 0.00 72 1017.0
20260905173200 88 348 0.9 3.5 0.00 0.80 0.00 73 1017.0
20260905172429 87 268 1.7 6.1 0.00 0.80 0.00 75 1017.2
20260905172200 87 252 2.6 6.1 0.00 0.80 0.00 73 1017.1
20260905171439 87 226 1.7 5.2 0.00 0.80 0.00 74 1017.1
20260905170936 87 281 2.6 6.1 0.00 0.80 0.00 73 1017.1
20260905170433 87 182 1.7 6.1 0.00 0.80 0.00 73 1017.2
20260905165931 87 248 0.9 3.5 0.00 0.80 0.00 71 1017.2
20260905165429 87 270 0.9 3.5 0.00 0.80 0.00 72 1017.2
20260905164929 86 209 0.9 3.5 0.00 0.80 0.00 75 1017.3
20260905164429 85 262 0.9 3.5 0.00 0.80 0.00 78 1017.5
20260905163929 85 265 1.7 3.5 0.00 0.80 0.00 79 1017.7
20260905163428 84 240 1.7 3.5 0.00 0.80 0.00 78 1017.9
20260905162928 84 215 1.7 3.5 0.00 0.80 0.00 81 1018.0
20260905162429 83 195 1.7 3.5 0.00 0.80 0.00 82 1018.1
20260905161929 83 196 1.7 2.6 0.00 0.80 0.00 84 1018.1
20260905161700 82 260 1.7 3.5 0.00 0.80 0.00 85 1018.1
20260905160930 81 237 1.7 3.5 0.00 0.80 0.00 84 1018.1
20260905160429 81 236 1.7 3.5 0.00 0.80 0.00 85 1018.1
20260905160159 81 240 0.9 3.5 0.00 0.80 0.00 86 1018.1
20260905155430 80 269 0.9 3.5 0.00 0.80 0.00 89 1018.2
20260905154929 80 223 1.7 3.5 0.00 0.80 0.00 87 1018.2
20260905154431 79 215 0.9 3.5 0.00 0.80 0.00 90 1018.2
20260905153929 78 254 0.9 3.5 0.00 0.80 0.00 89 1018.4
20260905153431 78 204 0.9 2.6 0.00 0.80 0.00 90 1018.4
20260905153200 77 190 0.9 3.5 0.00 0.80 0.00 92 1018.4
20260905152430 76 182 0.9 3.5 0.00 0.80 0.00 95 1018.5
20260905151929 76 219 0.9 2.6 0.00 0.80 0.00 95 1018.7
20260905151430 75 226 0.9 2.6 0.00 0.80 0.00 97 1018.6
20260905151159 74 242 0.9 1.7 0.00 0.80 0.00 99 1018.7
20260905150700 73 233 0.0 1.7 0.00 0.80 0.00 100 1018.8
20260905145929 73 230 0.0 1.7 0.00 0.80 0.00 100 1019.0
20260905145430 72 230 0.9 1.7 0.00 0.80 0.00 100 1019.0
20260905144929 72 230 0.0 1.7 0.00 0.80 0.00 100 1019.1
20260905144702 71 230 0.0 0.0 0.00 0.80 0.00 100 1019.0
20260905143930 71 213 0.0 0.9 0.00 0.80 0.00 100 1019.1
20260905143428 71 204 0.9 1.7 0.00 0.80 0.00 100 1019.2
20260905142929 71 201 0.9 1.7 0.00 0.80 0.00 100 1019.2
20260905142428 71 194 0.9 1.7 0.00 0.80 0.00 100 1019.1
20260905141929 71 189 0.9 1.7 0.00 0.80 0.00 100 1019.1
20260905141429 71 179 0.9 1.7 0.00 0.80 0.00 100 1019.0
20260905140929 71 209 0.9 1.7 0.00 0.80 0.00 100 1019.2
20260905140429 70 209 0.9 1.7 0.00 0.80 0.00 100 1019.3
20260905135929 70 209 0.0 1.7 0.00 0.80 0.00 100 1019.4
20260905135659 70 209 0.0 0.0 0.00 0.80 0.00 100 1019.4
20260905134901 70 209 0.0 0.0 0.00 0.80 0.00 100 1019.4
20260905134403 70 207 0.0 0.0 0.00 0.80 0.00 100 1019.5
20260905133901 70 207 0.0 0.0 0.00 0.80 0.00 100 1019.6
20260905133402 69 207 0.0 0.9 0.00 0.80 0.00 100 1019.6
20260905132901 69 207 0.0 1.7 0.00 0.80 0.00 100 1019.5
20260905132636 69 207 0.9 2.6 0.00 0.80 0.00 100 942.9
20260905132604 69 207 0.9 1.7 0.00 0.80 0.00 100 1019.5
20260905131401 69 207 0.9 2.6 0.00 0.80 0.00 100 943.0
20260905131133 69 205 0.0 2.6 0.00 0.80 0.00 100 943.0
20260905130404 69 205 0.0 2.6 0.00 0.80 0.00 100 1019.6
20260905125901 69 196 0.0 1.7 0.00 0.80 0.00 100 1019.7
20260905125400 69 196 0.0 1.7 0.00 0.80 0.00 100 1019.6
20260905124900 69 196 0.9 1.7 0.00 0.80 0.00 100 1019.5
20260905124401 69 196 0.9 1.7 0.00 0.80 0.00 100 1019.4
20260905124132 69 196 0.0 1.7 0.00 0.80 0.00 100 1019.4
20260905123401 69 196 0.0 0.9 0.00 0.80 0.00 100 1019.3
20260905122901 69 196 0.0 0.9 0.00 0.80 0.00 100 1019.3
20260905122401 69 196 0.0 1.7 0.00 0.80 0.00 100 1019.3
20260905122132 69 196 0.0 1.7 0.00 0.80 0.00 100 1019.3
20260905121401 69 196 0.0 1.7 0.00 0.80 0.00 100 1019.3
20260905120901 69 195 0.0 0.9 0.00 0.80 0.00 100 1019.3
20260905120401 69 195 0.0 1.7 0.00 0.80 0.00 100 1019.3
20260905115903 69 195 0.9 1.7 0.00 0.80 0.00 100 1019.3
20260905115401 69 195 0.0 1.7 0.00 0.80 0.00 100 1019.2
20260905115134 69 195 0.0 1.7 0.00 0.80 0.00 100 1019.1
20260905114401 69 194 0.0 1.7 0.00 0.80 0.00 100 1019.0
20260905113902 69 194 0.0 1.7 0.00 0.80 0.00 100 1019.0
20260905113400 69 194 0.0 1.7 0.00 0.80 0.00 100 1018.9
20260905112903 69 194 0.0 0.0 0.00 0.80 0.00 100 1018.8
20260905112402 69 194 0.0 0.0 0.00 0.80 0.00 100 1018.8
20260905111902 69 194 0.0 0.0 0.00 0.80 0.00 100 1018.7
20260905111401 69 194 0.0 0.0 0.00 0.80 0.00 100 1018.7
20260905111134 69 194 0.0 0.0 0.00 0.80 0.00 100 1018.5
20260905110400 69 194 0.0 0.0 0.00 0.80 0.00 100 1018.5
20260905105900 69 194 0.0 0.0 0.00 0.81 0.00 100 1018.5
20260905105401 69 194 0.0 0.0 0.00 0.81 0.00 100 1018.5
20260905105133 69 194 0.0 0.0 0.00 0.81 0.00 100 1018.4
20260905104401 69 194 0.0 0.0 0.00 0.81 0.00 100 1018.3
20260905103901 69 194 0.0 0.9 0.00 0.81 0.00 100 1018.2
20260905103400 69 194 0.0 1.7 0.00 0.81 0.00 100 1018.2
20260905102901 69 194 0.0 1.7 0.00 0.81 0.00 100 1018.2
20260905102401 69 146 0.0 1.7 0.00 0.81 0.00 100 1018.2
20260905101901 69 145 0.0 0.9 0.00 0.81 0.00 100 1018.2
20260905101401 69 145 0.0 0.9 0.00 0.81 0.00 100 1018.2
20260905100901 69 145 0.0 0.9 0.00 0.81 0.00 100 1018.1
20260905100634 69 145 0.0 0.0 0.00 0.81 0.00 100 1018.0
20260905095901 69 145 0.0 0.0 0.00 0.81 0.00 100 1018.0
20260905095401 69 145 0.0 0.0 0.00 0.81 0.00 100 1018.0
20260905094901 69 145 0.0 0.0 0.00 0.81 0.00 100 1018.0
20260905094402 69 145 0.0 0.0 0.00 0.81 0.00 100 1018.1
20260905094138 69 145 0.0 0.0 0.00 0.81 0.00 100 1018.1
20260905093402 69 145 0.0 0.9 0.00 0.81 0.00 100 1018.1
20260905092900 69 145 0.0 0.9 0.00 0.81 0.00 100 1018.1
20260905092401 69 145 0.0 0.9 0.00 0.81 0.00 100 1018.0
20260905091901 69 145 0.0 0.9 0.00 0.81 0.00 100 1018.0
20260905091402 69 144 0.0 0.9 0.00 0.81 0.00 100 1018.0
20260905090901 69 144 0.0 0.9 0.00 0.81 0.00 100 1018.1
20260905090402 69 144 0.0 0.9 0.00 0.81 0.00 100 1018.0
20260905090131 69 144 0.0 0.9 0.00 0.81 0.00 100 1018.0
20260905085406 69 144 0.0 0.9 0.00 0.81 0.00 100 1018.2
20260905085401 69 144 0.0 0.0 0.00 0.81 0.00 100 1018.1
20260905084402 69 144 0.0 1.7 0.00 0.81 0.00 100 1018.2